• In Hungary
  • List of Countries
  • For 7 days
  • Water Temperature
  • Satellite Maps
  • Weather Map
  • News
  • Weather Widgets
  • user-avatar
    Login

    Hourly Weather Niederkassel

    Today, 17 November, Friday

    Time Temperature Precipitation Wind Pressure Humidity
    00:00 +8°C° 0 mm 1 mps 763 mmHg 95%
    01:00 +9°C° 0.1 mm 1 mps 763 mmHg 95%
    02:00 +9°C° 0.1 mm 1 mps 764 mmHg 96%
    03:00 +9°C° 0.1 mm 1 mps 764 mmHg 96%
    04:00 +8°C° 0.1 mm 1 mps 764 mmHg 96%
    05:00 +8°C° 0.1 mm 1 mps 764 mmHg 96%
    06:00 +8°C° 0 mm 1 mps 764 mmHg 95%
    07:00 +8°C° 0 mm 1 mps 765 mmHg 93%
    08:00 +8°C° 0 mm 1 mps 765 mmHg 91%
    09:00 +8°C° 0 mm 1 mps 765 mmHg 88%
    10:00 +9°C° 0 mm 1 mps 765 mmHg 82%
    11:00 +10°C° 0 mm 1 mps 765 mmHg 76%
    12:00 +10°C° 0 mm 1 mps 765 mmHg 70%
    13:00 +10°C° 0 mm 1 mps 765 mmHg 71%
    14:00 +9°C° 0 mm 1 mps 765 mmHg 72%
    15:00 +9°C° 0 mm 1 mps 764 mmHg 73%
    16:00 +8°C° 0 mm 1 mps 764 mmHg 76%
    17:00 +7°C° 0 mm 1 mps 764 mmHg 79%
    18:00 +6°C° 0 mm 1 mps 764 mmHg 82%
    19:00 +5°C° 0 mm 1 mps 764 mmHg 83%
    20:00 +5°C° 0 mm 1 mps 764 mmHg 83%
    21:00 +5°C° 0 mm 1 mps 765 mmHg 84%
    22:00 +5°C° 0 mm 1 mps 764 mmHg 85%
    23:00 +4°C° 0 mm 1 mps 764 mmHg 86%

    Tomorrow, 18 November, Saturday

    Time Temperature Precipitation Wind Pressure Humidity
    00:00 +4°C° 0 mm 1 mps 764 mmHg 87%
    01:00 +3°C° 0 mm 2 mps 763 mmHg 87%
    02:00 +3°C° 0 mm 2 mps 763 mmHg 87%
    03:00 +3°C° 0 mm 2 mps 763 mmHg 87%
    04:00 +3°C° 0 mm 2 mps 762 mmHg 87%
    05:00 +2°C° 0 mm 3 mps 762 mmHg 87%
    06:00 +2°C° 0 mm 3 mps 762 mmHg 87%
    07:00 +3°C° 0 mm 3 mps 762 mmHg 84%
    08:00 +3°C° 0 mm 4 mps 761 mmHg 81%
    09:00 +4°C° 0 mm 4 mps 761 mmHg 78%
    10:00 +5°C° 0 mm 5 mps 761 mmHg 76%
    11:00 +5°C° 0 mm 5 mps 760 mmHg 75%
    12:00 +5°C° 0 mm 6 mps 760 mmHg 73%
    13:00 +5°C° 0.1 mm 6 mps 759 mmHg 74%
    14:00 +5°C° 0.1 mm 6 mps 759 mmHg 76%
    15:00 +5°C° 0.1 mm 6 mps 759 mmHg 77%
    16:00 +6°C° 0.5 mm 5 mps 759 mmHg 79%
    17:00 +6°C° 0.5 mm 5 mps 759 mmHg 81%
    18:00 +5°C° 0.5 mm 5 mps 759 mmHg 83%
    19:00 +5°C° 0.4 mm 4 mps 758 mmHg 84%
    20:00 +5°C° 0.4 mm 4 mps 758 mmHg 85%
    21:00 +5°C° 0.4 mm 3 mps 758 mmHg 85%
    22:00 +5°C° 0.1 mm 3 mps 758 mmHg 85%
    23:00 +5°C° 0.1 mm 3 mps 758 mmHg 85%

    Day after tomorrow, 19 November, Sunday

    Time Temperature Precipitation Wind Pressure Humidity
    00:00 +4°C° 0.1 mm 3 mps 758 mmHg 85%
    01:00 +4°C° 0.1 mm 3 mps 758 mmHg 84%
    02:00 +4°C° 0.1 mm 3 mps 758 mmHg 84%
    03:00 +3°C° 0.1 mm 3 mps 758 mmHg 84%
    04:00 +3°C° 0 mm 3 mps 758 mmHg 84%
    05:00 +3°C° 0 mm 3 mps 758 mmHg 84%
    06:00 +3°C° 0 mm 4 mps 758 mmHg 84%
    07:00 +3°C° 0.1 mm 4 mps 758 mmHg 83%
    08:00 +3°C° 0.1 mm 5 mps 758 mmHg 81%
    09:00 +5°C° 0.1 mm 5 mps 759 mmHg 80%
    10:00 +6°C° 0.1 mm 5 mps 759 mmHg 77%
    11:00 +6°C° 0.1 mm 5 mps 759 mmHg 75%
    12:00 +7°C° 0.1 mm 5 mps 759 mmHg 72%
    13:00 +7°C° 0.1 mm 5 mps 759 mmHg 73%
    14:00 +7°C° 0.1 mm 4 mps 760 mmHg 74%
    15:00 +6°C° 0.1 mm 4 mps 760 mmHg 75%
    16:00 +6°C° 0.1 mm 4 mps 760 mmHg 79%
    17:00 +5°C° 0.1 mm 4 mps 761 mmHg 82%
    18:00 +5°C° 0.1 mm 4 mps 761 mmHg 85%
    19:00 +4°C° 0.1 mm 4 mps 762 mmHg 86%
    20:00 +4°C° 0.1 mm 4 mps 762 mmHg 87%
    21:00 +4°C° 0.1 mm 4 mps 762 mmHg 88%
    22:00 +4°C° 0.1 mm 4 mps 763 mmHg 88%
    23:00 +4°C° 0.1 mm 4 mps 763 mmHg 89%

    20 November, Monday

    Time Temperature Precipitation Wind Pressure Humidity
    00:00 +4°C° 0.1 mm 4 mps 763 mmHg 89%
    01:00 +4°C° 0.1 mm 4 mps 763 mmHg 88%
    02:00 +4°C° 0.1 mm 4 mps 762 mmHg 87%
    03:00 +3°C° 0.1 mm 4 mps 762 mmHg 86%
    04:00 +3°C° 0 mm 4 mps 762 mmHg 84%
    05:00 +3°C° 0 mm 3 mps 762 mmHg 82%
    06:00 +3°C° 0 mm 3 mps 762 mmHg 80%
    07:00 +4°C° 0 mm 4 mps 761 mmHg 78%
    08:00 +4°C° 0 mm 4 mps 761 mmHg 76%
    09:00 +4°C° 0 mm 4 mps 761 mmHg 75%
    10:00 +5°C° 0.1 mm 5 mps 760 mmHg 76%
    11:00 +6°C° 0.1 mm 5 mps 760 mmHg 78%
    12:00 +7°C° 0.1 mm 5 mps 759 mmHg 79%
    13:00 +7°C° 0.2 mm 5 mps 758 mmHg 81%
    14:00 +7°C° 0.2 mm 5 mps 758 mmHg 82%
    15:00 +8°C° 0.2 mm 5 mps 757 mmHg 83%
    16:00 +8°C° 0.8 mm 6 mps 757 mmHg 84%
    17:00 +8°C° 0.8 mm 6 mps 756 mmHg 85%
    18:00 +8°C° 0.8 mm 7 mps 756 mmHg 86%
    19:00 +8°C° 1.1 mm 7 mps 756 mmHg 87%
    20:00 +8°C° 1.1 mm 7 mps 756 mmHg 87%
    21:00 +9°C° 1.1 mm 7 mps 756 mmHg 87%
    22:00 +9°C° 0.2 mm 7 mps 756 mmHg 88%
    23:00 +10°C° 0.2 mm 6 mps 756 mmHg 89%

    21 November, Tuesday

    Time Temperature Precipitation Wind Pressure Humidity
    00:00 +10°C° 0.2 mm 6 mps 756 mmHg 90%
    01:00 +10°C° 0.2 mm 6 mps 756 mmHg 90%
    02:00 +10°C° 0.2 mm 6 mps 756 mmHg 91%
    03:00 +10°C° 0.2 mm 5 mps 756 mmHg 91%
    04:00 +10°C° 0.2 mm 5 mps 756 mmHg 91%
    05:00 +10°C° 0.2 mm 5 mps 756 mmHg 91%
    06:00 +10°C° 0.2 mm 5 mps 757 mmHg 91%
    07:00 +10°C° 0.1 mm 5 mps 757 mmHg 90%
    08:00 +10°C° 0.1 mm 5 mps 757 mmHg 88%
    09:00 +10°C° 0.1 mm 5 mps 757 mmHg 87%
    10:00 +10°C° 0 mm 5 mps 757 mmHg 85%
    11:00 +10°C° 0 mm 5 mps 757 mmHg 83%
    12:00 +10°C° 0 mm 5 mps 757 mmHg 81%
    13:00 +9°C° 0 mm 5 mps 757 mmHg 82%
    14:00 +10°C° 0 mm 4 mps 757 mmHg 82%
    15:00 +10°C° 0 mm 4 mps 757 mmHg 83%
    16:00 +8°C° 0 mm 4 mps 757 mmHg 84%
    17:00 +8°C° 0 mm 4 mps 757 mmHg 85%
    18:00 +7°C° 0 mm 4 mps 757 mmHg 86%
    19:00 +8°C° 0 mm 3 mps 758 mmHg 87%
    20:00 +8°C° 0 mm 3 mps 758 mmHg 88%
    21:00 +8°C° 0 mm 3 mps 758 mmHg 89%
    22:00 +8°C° 0 mm 3 mps 758 mmHg 89%
    23:00 +8°C° 0 mm 3 mps 758 mmHg 90%

    22 November, Wednesday

    Time Temperature Precipitation Wind Pressure Humidity
    00:00 +7°C° 0 mm 3 mps 758 mmHg 90%
    01:00 +7°C° 0 mm 2 mps 758 mmHg 90%
    02:00 +7°C° 0 mm 2 mps 758 mmHg 90%
    03:00 +6°C° 0 mm 2 mps 758 mmHg 90%
    04:00 +6°C° 0 mm 2 mps 758 mmHg 89%
    05:00 +6°C° 0 mm 2 mps 758 mmHg 89%
    06:00 +6°C° 0 mm 2 mps 758 mmHg 88%
    07:00 +6°C° 0 mm 2 mps 758 mmHg 85%
    08:00 +7°C° 0 mm 2 mps 758 mmHg 81%
    09:00 +8°C° 0 mm 2 mps 758 mmHg 78%
    10:00 +9°C° 0 mm 3 mps 758 mmHg 74%
    11:00 +10°C° 0 mm 3 mps 758 mmHg 70%
    12:00 +11°C° 0 mm 3 mps 757 mmHg 65%
    13:00 +11°C° 0 mm 3 mps 757 mmHg 68%
    14:00 +10°C° 0 mm 3 mps 756 mmHg 70%
    15:00 +10°C° 0 mm 3 mps 756 mmHg 73%
    16:00 +9°C° 0 mm 3 mps 756 mmHg 73%
    17:00 +8°C° 0 mm 4 mps 756 mmHg 74%
    18:00 +7°C° 0 mm 4 mps 755 mmHg 74%
    19:00 +7°C° 0 mm 4 mps 755 mmHg 72%
    20:00 +8°C° 0 mm 4 mps 755 mmHg 70%
    21:00 +8°C° 0 mm 4 mps 755 mmHg 68%
    22:00 +8°C° 0 mm 4 mps 755 mmHg 68%
    23:00 +9°C° 0 mm 5 mps 755 mmHg 68%
    Show more